This is the latest recevied weather packets stored in our database for station/object YM2KV-13. If no packets are shown the sender has not sent any weather packets the latest 10 day(s).
| Time | Temp. | Humidity | Pressure | Rain* | Wind** | Luminosity | Snow |
|---|---|---|---|---|---|---|---|
| 1778057989 | 16.67° C | 69% | 1029.1 hPa | - | - | - | - |
| 1778057389 | 16.67° C | 70% | 1029.1 hPa | - | - | - | - |
| 1778056789 | 16.67° C | 69% | 1029 hPa | - | - | - | - |
| 1778056189 | 16.67° C | 65% | 1029.1 hPa | - | - | - | - |
| 1778055589 | 16.67° C | 66% | 1029 hPa | - | - | - | - |
| 1778054989 | 16.67° C | 69% | 1029 hPa | - | - | - | - |
| 1778054389 | 15° C | 68% | 1028.9 hPa | - | - | - | - |
| 1778053789 | 15° C | 68% | 1028.9 hPa | - | - | - | - |
| 1778053189 | 15° C | 70% | 1028.9 hPa | - | - | - | - |
| 1778052589 | 16.11° C | 66% | 1028.9 hPa | - | - | - | - |
| 1778051989 | 16.11° C | 72% | 1029 hPa | - | - | - | - |
| 1778051389 | 15° C | 74% | 1028.9 hPa | - | - | - | - |
| 1778050789 | 14.44° C | 77% | 1029 hPa | - | - | - | - |
| 1778050189 | 13.89° C | 80% | 1028.9 hPa | - | - | - | - |
| 1778049589 | 13.89° C | 80% | 1028.9 hPa | - | - | - | - |
| 1778048989 | 13.33° C | 85% | 1028.9 hPa | - | - | - | - |
| 1778048389 | 12.78° C | 86% | 1028.8 hPa | - | - | - | - |
| 1778047789 | 12.78° C | 88% | 1028.9 hPa | - | - | - | - |
| 1778047189 | 12.22° C | 89% | 1029 hPa | - | - | - | - |
| 1778046589 | 12.22° C | 90% | 1028.9 hPa | - | - | - | - |
| 1778045989 | 11.67° C | 92% | 1029 hPa | - | - | - | - |
| 1778045389 | 12.22° C | 92% | 1028.9 hPa | - | - | - | - |
| 1778044789 | 11.67° C | 94% | 1028.9 hPa | - | - | - | - |
| 1778044189 | 11.67° C | 95% | 1028.8 hPa | - | - | - | - |
| 1778043589 | 11.67° C | 94% | 1028.7 hPa | - | - | - | - |
* Rain since midnight (hover to see other rain measurements)
** Current wind speed in m/s (hover to see current wind gust speed)